Simultaneous Nadir Overpasses (SNOs) Predictions

Prediction of SNOs between METOP-B and NOAA-19 Satellite Orbit:

Table of predicted SNOs for the next 14.0 days since TLE Epoch: 5/21/2016
Index Date (METOP-B) Time (METOP-B) Lat,Lon (METOP-B) SZA (METOP-B ) Date (NOAA-19) Time (NOAA-19) Lat,Lon (NOAA-19) SZA (NOAA-19 ) Distance(km) Time Diff (sec)
1 05/25/2016 03:30:46 76.04, 127.70 54.96 05/25/2016 03:29:35 76.04, 127.65 54.95 1.29 71
2 05/25/2016 04:21:28 -76.03, -65.03 125.07 05/25/2016 04:20:37 -76.01, -65.00 125.09 2.20 51
3 05/25/2016 05:12:08 76.03, 102.29 54.93 05/25/2016 05:11:37 76.04, 102.16 54.93 3.76 31
4 05/25/2016 06:02:50 -76.01, -90.43 125.10 05/25/2016 06:02:39 -76.01, -90.50 125.10 1.90 11
5 05/25/2016 06:53:30 76.01, 76.89 54.90 05/25/2016 06:53:38 75.99, 76.83 54.87 3.02 8
6 05/25/2016 07:44:12 -75.99,-115.83 125.13 05/25/2016 07:44:40 -75.96,-115.83 125.16 3.78 28
7 05/25/2016 08:34:53 75.94, 51.34 54.82 05/25/2016 08:35:39 75.94, 51.49 54.81 4.25 46
8 05/25/2016 09:25:35 -75.93,-141.39 125.21 05/25/2016 09:26:42 -75.96,-141.33 125.18 3.32 67
9 05/25/2016 10:16:26 75.41, 24.29 54.27 05/25/2016 10:17:31 75.48, 27.54 54.36 91.12 65




NCC Satellite Simultaneous Nadir Overpasses (SNOs) Prediction Service
